Location: Enborne
(51.3833°N, 1.3667°W)
Time: 18:15:55
(UTC+00:00)

Envisat - Visible Passes

Search period start: 22 January 2022 00:00
Search period end: 01 February 2022 00:00
Orbit: 764 x 766 km, 98.2° (Epoch: 22 January)

Date Brightness Start Highest point End Pass type
(mag) Time Alt. Az. Time Alt. Az. Time Alt. Az.
22 Jan 5.9 03:30:59 10° ENE 03:33:11 13° E 03:35:22 10° ESE visible
22 Jan 3.0 05:07:57 10° NNE 05:13:04 78° ESE 05:18:09 10° S visible
22 Jan 4.2 06:47:54 10° N 06:51:33 20° WNW 06:55:11 10° WSW visible
23 Jan 4.2 04:31:16 10° NNE 04:36:03 39° E 04:40:48 10° SSE visible
23 Jan 3.5 06:10:25 10° N 06:15:02 36° WNW 06:19:37 10° SW visible
23 Jan 5.9 17:32:33 10° SW 17:35:37 16° W 17:38:43 10° NW visible
24 Jan 5.3 03:55:03 10° NE 03:58:49 21° E 04:02:35 10° SE visible
24 Jan 2.9 05:33:16 10° N 05:38:20 67° WNW 05:43:22 10° SSW visible
24 Jan 4.6 07:13:59 10° NNW 07:16:28 14° NW 07:18:57 10° W visible
25 Jan 3.3 04:56:22 10° NNE 05:01:27 64° ESE 05:06:29 10° S visible
25 Jan 4.0 06:36:04 10° N 06:40:05 24° WNW 06:44:05 10° WSW visible
26 Jan 4.6 04:19:48 10° NNE 04:24:22 32° E 04:28:55 10° SSE visible
26 Jan 3.3 05:58:43 10° N 06:03:31 43° WNW 06:08:17 10° SW visible
26 Jan 5.8 17:20:14 10° SW 17:23:53 20° W 17:27:32 10° NW visible
27 Jan 5.6 03:43:51 10° NE 03:47:05 17° E 03:50:18 10° SE visible
27 Jan 2.8 05:21:38 10° NNE 05:26:46 82° WNW 05:31:50 10° SSW visible
27 Jan 4.5 07:01:58 10° NNW 07:05:03 16° NW 07:08:06 10° W visible
28 Jan 3.7 04:44:50 10° NNE 04:49:49 51° E 04:54:45 10° S visible
28 Jan 3.8 06:24:17 10° N 06:28:36 28° WNW 06:32:54 10° WSW visible
28 Jan 6.2 17:47:36 10° WSW 17:49:32 12° W 17:51:28 10° WNW visible
29 Jan 4.9 04:08:24 10° NE 04:12:40 26° E 04:16:55 10° SSE visible
29 Jan 3.1 05:47:02 10° N 05:51:58 52° WNW 05:56:53 10° SW visible
30 Jan 5.8 03:32:50 10° NE 03:35:20 13° E 03:37:48 10° ESE visible
30 Jan 3.0 05:10:02 10° NNE 05:15:10 82° ESE 05:20:15 10° SSW visible
30 Jan 4.3 06:50:03 10° NNW 06:53:36 19° NW 06:57:07 10° W visible
31 Jan 4.1 04:33:19 10° NNE 04:38:10 42° E 04:42:57 10° SSE visible
31 Jan 3.6 06:12:32 10° N 06:17:06 34° WNW 06:21:37 10° SW visible
31 Jan 6.0 17:34:54 10° WSW 17:37:46 15° W 17:40:39 10° NW visible
